Lapse_Rate
6.2 6.2 6.2 6.3 5.7 6.4 7.3 7.9 7.4 7.1 6.9 6.7 6.3 6.3 5.7 5.9 5.9 5.8 6.0 6.0 6.0 5.8 5.8 5.8 5.8 5.8 5.7 5.5 5.3 5.4 5.5 5.3 5.3 5.4 5.4 5.5 5.5 5.5 5.7 5.8 5.8 5.8 5.9 6.1 6.1 6.0 6.2 6.2 6.2
6.0 6.0 6.1 5.6 6.2 6.9 7.4 7.4 7.4 7.1 6.7 6.5 6.1 6.5 6.3 5.8 5.5 6.1 6.1 5.9 6.0 6.0 5.9 5.9 5.7 5.6 5.5 5.4 5.3 5.3 5.4 5.4 5.3 5.3 5.4 5.5 5.6 5.7 5.8 5.7 5.7 5.9 5.9 6.0 6.0 5.9 6.1 6.0 6.0
6.0 6.1 5.5 6.4 5.5 5.8 7.2 7.2 6.7 6.5 6.4 6.6 6.3 6.0 6.1 5.6 5.5 5.8 5.9 6.0 5.8 5.8 5.8 5.7 5.7 5.6 5.5 5.5 5.3 5.4 5.5 5.4 5.4 5.3 5.2 5.5 5.6 5.7 5.8 5.8 6.0 6.0 6.0 6.0 5.8 5.9 5.9 5.8 5.9
6.1 5.8 6.2 6.3 7.0 6.7 6.8 6.9 6.8 6.9 6.5 6.3 6.1 6.0 5.7 6.1 5.8 6.0 5.8 5.7 5.7 5.8 5.7 5.4 5.7 5.7 5.6 5.4 5.3 5.3 5.4 5.4 5.3 5.3 5.5 5.6 5.7 5.8 5.9 5.9 6.1 6.0 6.1 5.9 5.9 5.9 6.0 6.0 6.1
5.7 5.7 6.1 6.6 6.8 6.3 6.5 6.4 6.6 6.6 6.7 6.4 6.0 5.9 5.6 6.2 6.1 6.1 5.7 5.7 5.6 5.5 5.5 5.5 5.7 5.9 5.6 5.5 5.4 5.4 5.5 5.5 5.3 5.4 5.5 5.7 5.7 5.8 5.9 6.0 6.1 6.1 6.1 5.9 6.1 6.1 6.1 6.0 5.8
5.4 5.8 6.0 6.5 6.5 6.3 6.3 6.2 6.7 6.5 6.4 5.9 6.0 6.0 5.4 6.2 6.0 5.8 5.4 5.3 5.0 5.5 5.6 5.6 5.7 5.8 5.6 5.5 5.3 5.4 5.4 5.4 5.5 5.6 5.6 5.7 5.8 5.9 6.0 6.1 6.2 6.3 6.1 6.2 6.2 6.2 6.1 6.0 5.8
6.0 5.7 5.9 5.8 6.0 6.1 6.0 5.9 6.5 6.4 6.7 6.2 5.8 6.1 6.0 6.1 5.6 5.1 5.1 5.2 5.5 5.6 5.3 5.4 5.7 5.5 5.5 5.3 5.4 5.4 5.3 5.3 5.3 5.3 5.4 5.4 5.6 6.0 6.1 6.2 6.2 6.2 6.1 6.3 6.3 6.2 6.0 6.1 5.8
6.2 5.6 6.2 5.9 5.7 5.9 6.2 5.9 6.2 6.1 6.2 5.9 5.7 5.7 5.6 5.8 5.6 5.4 5.0 5.2 5.4 5.3 5.5 5.6 5.4 5.3 5.4 5.2 5.2 5.2 5.3 5.3 5.1 5.2 5.3 5.5 5.6 6.0 6.2 6.2 6.2 6.1 6.2 6.2 6.2 6.1 6.1 6.2 5.9
6.1 5.5 6.6 6.6 6.1 6.1 6.0 5.9 5.9 6.0 5.9 6.0 5.5 6.0 5.6 5.7 5.0 5.2 5.1 5.1 5.4 5.5 5.7 5.8 5.3 5.4 5.4 5.3 5.2 5.1 5.3 5.3 5.2 5.0 5.1 5.4 5.6 6.0 6.1 6.3 6.3 6.3 6.4 6.2 6.2 6.2 6.3 6.2 6.1
6.5 6.4 6.4 6.4 6.3 6.1 6.1 5.8 5.9 5.8 6.1 5.8 5.4 5.2 5.9 4.9 4.8 4.9 5.1 4.8 4.9 5.6 5.6 5.7 5.3 5.4 5.4 5.4 5.3 5.2 5.1 5.3 5.1 5.0 5.2 5.3 5.2 5.9 6.0 6.1 6.2 6.2 6.5 6.3 6.2 6.3 6.3 6.3 5.7
6.7 6.7 6.7 6.2 6.1 6.2 5.9 5.7 5.7 5.8 6.1 5.9 5.5 5.0 5.5 4.8 4.9 4.9 4.9 4.7 4.8 4.6 5.0 5.3 5.6 5.5 5.4 5.4 5.4 5.3 4.9 5.2 5.3 5.3 5.3 5.3 5.4 5.9 5.9 6.1 6.2 6.3 6.4 6.4 6.3 6.5 6.4 6.0 6.2
6.6 6.3 6.4 6.1 6.4 5.9 5.7 5.4 5.7 5.7 5.5 6.0 5.5 5.1 4.9 5.0 5.2 5.2 5.1 4.8 4.8 4.9 4.9 5.3 5.3 5.3 5.2 5.4 5.2 5.3 5.1 5.0 5.4 5.3 5.7 5.7 5.9 5.9 5.3 6.0 6.2 6.3 6.3 6.5 6.2 6.3 6.3 6.2 6.3
7.1 6.6 6.3 6.2 5.9 5.8 5.9 5.7 5.6 5.7 6.0 5.8 5.6 5.1 5.1 5.3 5.1 5.2 5.2 5.0 4.9 5.1 5.1 5.0 5.4 5.2 5.3 5.2 5.3 5.2 5.6 5.4 5.6 5.4 5.5 5.8 6.1 6.0 6.0 6.4 6.3 6.2 6.3 6.5 6.4 6.4 6.4 6.3 6.1
6.9 6.6 6.5 6.3 6.4 6.0 5.7 5.6 5.7 5.4 5.8 5.7 5.8 5.3 5.2 5.3 5.3 5.2 5.0 5.0 5.0 4.9 5.2 5.2 5.4 5.2 5.2 5.3 5.2 5.4 5.7 5.7 5.5 5.5 5.6 5.9 6.0 6.0 6.0 6.2 6.4 6.5 6.5 6.5 5.9 6.0 6.0 6.2 5.9
7.0 7.1 6.8 6.8 6.7 6.6 6.0 6.1 5.8 5.6 5.7 6.0 5.9 5.8 5.5 5.3 5.2 5.0 4.9 4.8 4.9 4.6 4.8 5.0 5.3 5.2 5.1 5.1 5.1 5.4 5.8 5.6 5.5 5.9 5.8 5.9 5.9 6.0 6.0 6.1 6.4 6.2 6.5 6.5 6.5 6.3 5.9 6.0 5.9
7.2 7.7 8.4 7.0 6.7 6.8 6.3 6.3 6.4 5.8 5.5 5.7 5.8 5.7 5.5 5.5 5.3 5.0 4.9 4.8 4.6 4.6 5.4 5.2 4.8 5.4 5.1 4.9 5.0 5.1 5.5 5.6 5.6 5.7 6.0 5.9 5.7 6.0 6.0 6.1 5.4 6.3 6.3 6.0 5.8 6.4 5.4 5.8 6.0
8.6 9.1 8.8 8.3 7.3 6.9 6.8 6.6 6.5 5.9 5.6 5.8 5.7 5.6 5.7 5.6 5.2 5.1 4.9 4.9 4.6 4.8 5.5 5.5 4.9 5.4 5.0 4.9 4.6 4.6 5.1 5.3 5.4 5.7 5.6 5.7 5.5 5.7 5.9 5.8 5.3 6.1 6.0 5.6 5.9 6.2 5.3 5.8 6.0
8.8 9.2 9.3 9.4 7.6 7.1 7.2 7.4 7.0 6.3 6.0 6.1 5.9 5.6 5.6 5.8 5.3 5.1 5.1 4.9 4.6 5.4 5.6 5.5 5.3 5.3 5.2 5.0 4.7 4.6 4.9 5.1 5.3 5.5 5.6 5.5 5.6 5.7 5.8 5.7 6.2 6.0 5.6 5.4 5.9 6.3 5.8 6.1 6.0
9.2 8.2 8.8 9.4 7.6 7.5 7.6 7.5 7.4 7.1 6.4 6.3 6.0 5.8 5.6 5.6 5.4 5.3 5.2 5.0 4.7 5.2 5.6 5.7 5.6 5.4 5.1 5.2 5.1 4.7 4.7 4.8 5.1 5.1 5.2 5.3 5.4 5.6 5.7 6.1 6.0 5.9 5.7 5.7 6.0 6.0 5.8 5.7 5.6
8.0 8.2 9.2 9.5 7.9 7.6 7.9 8.1 8.1 7.8 7.5 6.8 6.4 6.5 6.1 5.9 5.7 5.5 5.3 5.2 5.0 4.8 5.6 5.8 5.8 5.6 5.4 5.3 5.3 5.0 4.6 4.7 4.9 4.9 5.0 5.1 5.2 5.5 5.6 5.9 6.0 6.1 5.7 6.0 6.0 6.0 5.9 5.6 5.5
8.0 8.3 9.5 9.2 8.5 8.4 8.1 8.6 8.0 8.1 7.9 7.3 6.8 6.4 6.3 6.0 6.3 5.9 5.5 5.2 5.2 4.9 5.5 5.7 5.7 5.7 5.7 5.5 5.4 5.3 4.9 4.9 4.9 5.0 5.0 5.4 5.4 5.6 5.7 5.9 6.0 6.2 6.1 5.4 6.0 6.1 5.9 5.9 5.7
8.3 9.3 9.1 8.1 8.4 9.5 7.9 9.5 8.7 8.7 8.3 7.9 7.3 6.8 6.6 6.2 6.4 6.5 6.0 5.6 5.5 5.1 5.6 5.7 5.8 5.8 5.7 5.6 5.5 5.5 5.4 5.1 4.7 4.9 5.2 5.6 5.6 5.9 6.1 5.9 6.0 6.0 5.9 5.8 5.7 6.0 6.1 6.1 6.0
8.0 9.1 8.0 8.2 8.5 9.6 9.5 9.5 9.4 8.8 8.7 8.5 7.9 7.3 6.8 6.6 6.3 6.2 6.2 5.9 5.8 5.4 5.7 5.7 5.8 5.8 5.8 5.7 5.6 5.5 5.4 5.6 4.8 4.8 5.0 5.7 5.9 6.0 6.1 6.2 5.9 5.8 5.9 5.9 5.9 5.8 6.2 5.9 6.0
7.9 8.1 8.1 8.2 9.0 9.7 9.6 9.6 9.6 9.5 9.2 9.4 9.3 8.2 7.4 6.9 7.0 6.5 6.1 6.0 5.8 5.6 6.0 6.1 6.0 6.1 6.0 6.0 5.9 5.8 5.5 5.5 5.2 5.1 4.6 5.3 5.6 5.9 6.1 6.1 6.2 6.1 5.9 5.8 5.9 5.9 6.0 5.8 5.8
8.0 8.2 9.5 9.6 9.6 9.8 9.7 9.5 9.6 9.7 9.6 9.6 9.3 8.6 8.1 7.3 6.9 6.8 6.6 6.3 6.0 5.7 6.5 6.5 6.3 6.3 6.1 5.9 5.9 5.9 5.8 5.8 5.7 5.6 5.4 5.3 4.9 5.1 6.2 6.2 6.1 6.1 6.0 6.0 5.9 5.9 5.8 5.8 5.8
8.1 8.5 9.7 9.5 9.8 9.9 9.6 9.7 9.7 9.7 9.6 9.6 9.5 8.5 8.3 7.7 7.2 6.9 6.8 6.5 6.5 6.0 6.5 6.6 6.6 6.4 6.2 6.0 5.8 5.9 6.0 6.0 6.0 6.0 5.9 5.7 5.7 5.7 5.3 6.0 6.1 6.2 6.2 5.9 6.0 6.1 5.8 5.7 5.8
9.3 8.6 9.3 9.6 9.7 9.8 9.7 9.7 9.6 9.7 9.4 9.6 9.6 9.0 8.5 8.0 7.6 7.3 6.9 6.4 6.2 6.0 6.7 6.8 6.7 6.6 6.5 6.1 5.8 5.9 6.2 6.1 6.1 5.9 6.0 5.8 6.2 5.6 6.1 6.3 6.2 6.2 6.1 6.0 5.6 5.8 6.0 5.9 5.9
8.5 9.6 9.6 9.6 9.6 9.6 9.7 9.7 9.7 9.6 9.7 9.5 9.5 9.1 8.4 8.0 7.8 7.3 7.0 6.5 6.3 6.3 6.7 6.7 6.6 6.6 6.5 5.9 5.8 5.9 6.0 6.0 5.8 5.8 5.9 5.9 5.9 6.1 6.0 5.3 6.1 6.2 6.1 6.0 6.0 6.1 6.1 6.0 6.0
8.9 8.6 9.1 9.6 9.6 9.9 9.8 9.8 9.8 9.6 9.6 9.5 9.4 9.1 8.5 8.0 7.7 7.5 6.9 6.4 6.1 6.2 6.2 6.9 6.5 6.3 6.2 6.0 6.0 5.6 6.0 5.6 5.7 5.9 5.9 5.9 5.8 6.0 6.0 6.3 6.0 6.0 5.8 6.2 6.2 6.0 5.7 6.0 5.8
9.5 9.6 9.6 9.6 9.6 9.6 9.6 9.6 9.8 9.7 9.7 9.6 9.0 8.6 8.3 7.9 7.5 7.3 6.7 6.1 6.1 6.8 7.1 7.1 7.0 6.3 6.1 5.8 6.0 6.2 6.2 6.0 5.8 6.0 5.9 5.8 5.7 5.9 6.0 5.9 6.0 5.9 6.0 6.0 6.1 6.2 6.0 5.8 5.9
Wind_Speed
11 14 6 5 5 3 4 5 11 7 11 12 9 12 8 13 7 7 17 17 12 16 17 16 14 14 14 13 12 11 12 11 11 11 11 11 12 12 13 12 13 14 14 14 15 15 14 14 13
9 4 6 5 5 3 6 3 10 11 9 13 8 2 11 15 13 17 16 19 11 12 19 17 14 14 13 13 12 11 11 10 8 10 11 11 11 13 12 13 12 14 14 14 14 14 14 13 12
11 6 8 5 3 5 8 8 10 9 7 2 4 6 6 7 10 14 22 20 18 11 13 17 14 13 12 11 10 9 9 9 7 9 10 10 10 11 13 12 12 13 14 13 14 12 10 9 7
4 5 5 7 8 7 2 10 9 9 7 5 3 11 9 9 6 11 21 19 13 16 13 15 12 12 13 6 8 7 9 8 7 7 9 9 11 12 11 12 10 12 12 11 11 9 9 8 5
7 4 8 8 4 3 4 4 7 1 5 8 6 11 8 5 8 18 21 18 18 15 18 16 12 12 14 10 6 8 7 6 7 6 6 8 11 10 12 11 10 10 11 9 9 8 8 6 5
6 2 7 4 1 4 9 4 3 1 7 5 6 7 11 9 14 15 19 18 15 17 16 17 12 11 11 11 10 9 8 7 10 10 6 6 9 10 11 11 9 8 9 8 7 6 6 7 9
8 2 4 6 7 5 7 3 1 4 4 11 0 9 11 11 14 14 11 12 14 11 13 15 14 11 11 12 11 11 9 12 16 14 7 5 8 10 9 10 8 8 8 7 5 4 4 4 5
4 3 2 4 3 0 2 8 6 1 5 6 5 5 15 13 14 12 12 12 13 14 9 12 15 14 15 13 11 10 10 13 16 15 10 9 9 10 9 10 7 6 6 5 2 3 2 1 4
4 7 3 5 5 1 5 7 4 3 4 7 3 4 24 22 17 15 14 11 9 11 9 9 9 18 12 14 12 9 12 16 15 14 12 13 12 13 13 11 8 7 5 4 2 0 4 7 7
10 3 8 8 8 7 5 4 4 6 7 10 10 16 18 18 19 17 15 13 17 16 11 8 5 11 12 14 13 9 11 16 17 15 14 15 6 7 15 10 7 6 6 6 4 6 11 12 8
3 8 7 11 6 2 6 6 7 7 1 11 13 16 18 16 13 13 13 14 14 12 12 10 6 11 11 12 13 13 12 15 14 13 10 12 10 8 11 10 11 10 11 11 10 9 13 4 6
2 7 8 5 4 2 4 2 6 3 4 6 13 15 15 14 17 12 10 7 4 11 12 13 13 9 4 11 9 11 12 6 13 12 11 6 7 10 8 10 7 6 9 2 7 4 6 2 3
5 5 2 3 2 3 5 3 5 6 1 7 13 14 14 12 15 14 18 16 11 11 11 7 6 8 5 6 9 3 8 9 13 14 12 12 6 4 7 6 8 3 4 6 3 1 2 2 3
8 4 0 1 2 3 6 7 7 11 3 8 13 13 13 12 12 11 9 11 15 17 15 10 8 9 10 7 7 5 7 3 10 4 12 1 9 6 6 6 6 6 2 5 2 1 1 4 3
3 9 5 6 0 3 5 9 11 10 9 7 11 12 13 13 14 12 10 10 9 8 14 15 14 11 9 8 10 5 11 6 5 12 10 3 5 5 7 6 5 5 3 3 5 7 5 6 3
8 9 4 9 0 5 5 0 9 12 15 15 15 13 13 14 15 13 12 11 9 11 10 8 7 12 12 10 10 8 6 5 1 5 9 6 3 7 7 5 5 8 5 5 4 8 7 3 3
10 7 7 3 4 5 4 3 9 13 14 13 11 12 13 14 13 12 14 10 13 9 10 9 8 12 12 10 10 10 9 10 6 6 4 8 4 7 11 7 6 1 5 2 5 8 3 5 4
5 7 2 4 5 3 8 7 9 11 13 14 15 14 14 16 17 16 14 13 13 11 11 10 8 14 12 8 8 5 6 6 7 7 9 7 6 7 7 5 2 6 3 4 3 8 6 7 7
11 7 10 6 6 6 7 7 5 13 13 14 17 21 18 18 15 17 14 14 13 13 12 12 10 12 11 9 9 10 10 10 8 7 7 11 11 9 8 8 7 6 5 4 1 4 6 4 1
9 14 12 3 3 6 9 11 10 11 14 16 17 17 18 13 17 17 15 16 15 15 13 12 12 13 10 10 8 4 5 6 6 13 13 14 10 8 9 9 5 5 4 3 3 5 8 6 3
15 15 13 8 11 13 12 17 12 14 13 14 17 18 18 17 19 21 20 17 16 17 15 14 14 14 13 10 8 7 4 2 6 4 8 10 12 11 10 8 8 3 6 6 6 5 6 9 3
17 13 8 8 12 11 8 7 11 12 12 15 15 17 18 23 22 20 21 19 19 17 17 16 15 15 14 12 10 10 9 9 9 8 7 10 13 11 11 10 9 6 6 7 3 5 5 3 8
15 13 5 10 13 15 17 8 6 7 10 14 18 18 20 21 22 20 21 19 18 18 17 17 16 15 14 14 10 10 10 9 8 8 10 8 9 11 12 11 11 7 6 5 6 5 2 4 6
15 15 10 14 13 13 15 12 3 6 7 4 3 14 19 22 21 20 22 21 18 18 18 18 18 16 15 15 14 12 11 9 10 10 8 9 8 9 12 13 11 10 7 8 7 7 5 5 6
16 14 11 12 12 10 7 2 9 13 6 6 1 5 12 20 21 22 23 20 20 20 20 18 20 18 17 17 16 15 13 12 10 6 8 5 4 9 11 10 9 8 9 11 6 4 5 5 5
14 18 12 11 9 9 6 4 5 2 5 8 8 5 10 17 21 22 23 21 21 21 21 21 21 19 18 18 16 14 14 10 10 10 9 8 6 10 13 13 11 11 10 10 8 8 8 8 8
15 16 17 19 15 13 14 9 7 9 10 10 9 8 11 14 19 22 23 21 21 20 21 21 20 18 19 20 15 15 15 14 12 12 12 10 10 13 14 12 12 11 11 10 9 9 8 8 6
19 11 12 11 13 15 13 12 7 7 3 7 5 8 10 11 15 21 21 22 21 21 20 20 20 20 20 19 17 12 16 14 13 11 11 10 10 9 8 9 11 11 10 11 9 9 9 8 8
14 16 15 15 10 11 12 7 10 7 3 2 6 2 12 9 13 17 18 18 19 18 18 19 17 19 17 19 15 14 14 15 14 14 12 11 11 10 9 6 10 8 9 11 9 10 10 9 9
19 19 18 13 16 13 8 11 1 8 4 3 4 4 5 9 11 13 19 20 16 17 17 16 18 19 19 17 14 18 17 17 16 15 15 12 12 13 11 10 10 10 11 11 10 12 11 11 10
Wind_Direction
197 213 251 253 253 181 126 89 120 97 86 74 55 36 103 59 17 100 143 129 135 125 127 139 133 125 118 114 111 111 110 113 117 113 108 106 103 101 99 103 102 98 96 99 99 102 103 101 97
271 274 230 276 248 185 69 69 73 66 77 85 72 48 70 74 79 115 127 132 118 129 144 137 136 129 125 126 126 128 121 120 125 118 111 106 112 112 108 106 103 102 101 104 104 101 98 99 99
257 274 271 273 89 219 117 94 89 94 108 122 118 18 27 86 107 136 128 140 138 147 90 118 123 126 126 129 135 135 133 137 132 121 119 121 116 109 111 109 109 104 104 102 99 95 93 86 75
274 216 236 263 290 64 184 101 109 108 83 43 335 97 98 52 96 123 141 139 132 146 136 134 136 133 127 124 146 149 142 153 152 137 130 138 122 117 115 109 106 105 104 98 95 90 79 63 48
231 245 269 250 146 72 43 55 114 158 75 89 319 91 84 82 98 140 142 150 161 140 156 144 143 137 136 151 160 151 143 150 153 134 146 132 124 124 116 118 111 107 103 101 92 81 64 41 34
272 299 299 256 211 151 131 214 112 138 78 111 102 113 82 127 138 161 157 160 158 150 150 134 139 134 135 141 136 123 132 128 117 104 75 127 128 131 124 119 113 112 106 98 85 72 51 43 71
308 245 341 331 121 3 46 264 150 294 79 73 8 74 111 145 160 161 144 117 104 100 132 144 141 143 140 136 127 130 132 124 116 119 155 140 142 133 126 118 119 118 109 99 94 77 46 38 71
277 315 43 51 52 157 260 267 42 300 62 101 314 137 138 152 157 144 147 127 139 148 132 148 154 166 163 147 125 118 121 128 130 143 173 158 152 139 135 137 123 123 120 116 105 62 52 98 116
228 330 26 83 125 201 197 217 335 335 166 46 65 27 126 155 154 155 144 157 166 113 147 156 146 159 136 134 145 117 119 117 120 138 161 169 176 173 160 90 121 134 141 137 130 249 261 242 221
268 283 32 21 132 217 130 275 183 272 171 115 99 100 125 153 157 157 171 168 146 160 169 162 171 143 156 146 144 133 147 137 155 155 175 208 167 79 112 119 141 152 175 176 190 234 247 249 214
339 15 7 38 22 237 190 173 192 237 146 139 133 133 146 157 156 173 170 177 160 157 153 154 127 152 188 134 170 153 171 167 152 158 201 225 169 151 165 142 169 171 196 197 193 218 231 39 20
237 55 11 33 93 98 163 140 200 254 212 80 133 146 154 168 149 177 177 168 126 98 126 161 163 173 180 136 188 189 158 169 126 159 217 225 170 196 144 180 149 169 180 96 267 142 43 345 135
31 79 17 44 117 175 119 255 355 152 247 142 139 154 164 175 150 171 169 168 161 155 158 189 154 164 188 135 169 300 143 181 141 184 189 168 171 178 206 111 190 191 130 201 222 61 73 159 186
25 19 228 189 124 181 209 251 237 153 161 168 155 165 171 168 164 140 154 155 168 158 168 156 157 172 175 186 159 156 154 134 184 273 157 322 163 167 147 176 157 187 142 288 106 324 273 262 114
117 260 202 188 290 315 248 215 222 172 167 203 177 175 164 168 148 155 151 152 169 152 146 164 163 180 166 169 158 173 147 183 108 206 123 186 274 204 163 188 159 137 144 218 225 223 201 244 188
235 241 248 120 269 134 248 173 206 163 183 189 208 181 173 173 163 160 157 169 155 162 160 164 173 148 166 170 156 151 141 104 38 26 145 171 248 189 240 151 198 105 230 209 265 229 336 121 213
180 264 42 142 158 289 225 147 180 172 198 208 206 200 189 181 171 168 159 168 146 160 162 176 166 157 154 170 157 170 157 162 158 179 195 143 195 205 256 200 119 155 250 257 271 302 220 105 238
174 303 209 333 111 212 272 244 177 181 212 210 191 198 194 197 191 172 181 170 155 157 165 174 180 131 156 163 150 186 166 168 179 213 164 162 200 213 252 205 69 246 237 221 326 356 3 332 345
329 294 280 274 88 278 260 265 252 179 204 218 185 193 208 201 189 175 184 172 167 162 172 172 180 155 158 176 174 183 184 186 173 225 188 190 211 213 208 241 193 245 294 360 56 267 214 273 104
272 264 257 212 186 255 270 274 242 203 205 210 206 212 195 207 191 181 194 186 180 169 174 174 176 168 191 169 189 183 181 187 173 213 201 197 205 205 218 258 197 196 239 216 263 280 305 262 113
251 261 271 312 312 268 245 256 229 207 203 202 211 210 209 194 220 186 196 187 184 169 179 178 178 174 193 191 197 184 203 231 193 210 188 193 201 195 230 209 265 214 271 223 191 225 286 295 263
259 236 255 294 274 287 238 288 195 204 188 203 211 212 211 189 227 192 189 186 190 175 179 176 180 178 188 191 190 184 204 205 202 214 201 189 196 211 198 220 220 233 255 283 202 244 282 266 298
257 271 292 284 278 267 254 228 126 202 196 202 199 205 212 206 199 201 193 191 196 175 175 178 181 179 186 188 202 185 229 199 204 204 193 232 165 210 207 205 213 225 234 239 271 304 193 282 262
256 274 237 251 254 262 251 239 259 190 202 136 181 197 197 205 202 197 188 186 192 174 175 178 179 182 188 190 205 201 195 242 210 206 182 183 219 191 207 198 205 215 231 245 216 239 212 258 326
215 225 232 230 226 252 114 299 299 297 258 265 320 230 197 194 199 194 196 186 184 176 177 179 178 186 188 191 196 199 212 215 255 191 218 249 250 192 181 204 200 206 220 227 210 220 267 227 252
219 229 246 252 276 312 150 250 251 329 223 213 207 230 179 193 189 196 195 193 183 181 183 183 177 185 187 190 194 197 202 213 221 201 226 242 179 273 170 184 202 219 194 226 198 206 224 229 228
203 219 255 281 281 269 269 252 307 242 211 235 212 152 188 196 192 193 189 191 184 181 186 186 177 188 188 190 194 193 196 212 212 228 206 234 251 180 236 172 197 209 215 206 213 230 225 238 256
241 251 229 229 259 261 257 263 234 154 306 6 309 165 185 188 197 185 190 188 186 186 183 189 182 193 191 198 193 201 200 203 214 224 228 226 238 245 143 263 188 207 215 214 218 227 215 234 248
203 245 252 278 297 301 283 301 76 148 181 292 329 150 164 186 192 189 183 180 187 190 182 186 187 196 198 206 191 204 216 207 207 216 217 225 235 245 241 221 228 206 240 219 202 249 274 202 238
239 215 224 238 236 248 284 286 71 168 205 33 330 139 125 173 184 197 176 174 179 185 183 185 192 196 201 198 194 203 212 214 209 214 217 215 218 230 229 218 220 225 219 238 210 228 232 251 238